LFPM 131400Z AUTO 08006KT 020V120 CAVOK 11/M03 Q1031

Les avions qui composent notre flotte

Avion Robin DR400-100

Avion école

(freins aux palonniers)

F-GGJG
   * tarif promotionnel appliqué pendant la formation des élèves non brevetés